Location: Rio Negrinho
(26.2394°S, 49.4999°W)
Time: 01:10:58
(UTC+00:00)

Cosmos 44 Rocket - Pass Details

Date: 07 June 2020
Orbit: 653 x 737 km, 65.1° (Epoch: 13 July)

Event Time Altitude Azimuth Distance (km) Brightness Sun altitude
Exits shadow 08:36:35 - 189° (S) 2,236 5.7 -18.4°
Reaches altitude 10° 08:36:49 10° 188° (S) 2,154 5.6 -18.4°
Maximum altitude 08:41:24 39° 119° (ESE) 1,014 4.5 -17.4°
Drops below altitude 10° 08:45:50 10° 50° (NE) 2,086 6.8 -16.5°
Sets 08:48:13 0° 42° (NE) 2,982 7.6 -16.0°
